Location: 22
(39.7117°N, 89.5929°W)
Time: 08:01:06
(UTC-05:00)

A-11 Canister half - Pass Details

Date: 07 February 2023
Orbit: 1526 x 1682 km, 47.3° (Epoch: 01 April)

Event Time Altitude Azimuth Distance (km) Brightness Sun altitude
Exits shadow 03:26:13 44° 138° (SE) 2,013 9.6 -41.4°
Maximum altitude 03:26:24 44° 135° (SE) 2,012 9.6 -41.4°
Drops below altitude 10° 03:35:00 10° 68° (ENE) 3,702 11.7 -39.8°
Sets 03:38:13 0° 62° (ENE) 4,696 12.4 -39.2°
